This is the latest recevied weather packets stored in our database for station/object DG7YEO-13. If no packets are shown the sender has not sent any weather packets the latest 10 day(s).
| Time | Temp. | Humidity | Pressure | Rain* | Wind** | Luminosity | Snow |
|---|---|---|---|---|---|---|---|
| 1777811525 | 25° C | 39% | 1009.7 hPa | 0 mm | - | - | - |
| 1777810625 | 24.44° C | 40% | 1009.7 hPa | 0 mm | - | - | - |
| 1777809725 | 23.89° C | 44% | 1009.7 hPa | 0 mm | - | - | - |
| 1777808825 | 23.89° C | 43% | 1009.8 hPa | 0 mm | - | - | - |
| 1777807925 | 23.89° C | 43% | 1010 hPa | 0 mm | - | - | - |
| 1777807025 | 23.89° C | 43% | 1009.9 hPa | 0 mm | - | - | - |
| 1777806125 | 23.89° C | 47% | 1010 hPa | 0 mm | - | - | - |
| 1777805224 | 23.33° C | 48% | 1010.1 hPa | 0 mm | - | - | - |
| 1777804324 | 23.33° C | 51% | 1010.2 hPa | 0 mm | - | - | - |
| 1777803425 | 23.33° C | 50% | 1010.4 hPa | 0 mm | - | - | - |
| 1777802525 | 23.33° C | 56% | 1010.4 hPa | 0 mm | - | - | - |
| 1777801625 | 22.78° C | 58% | 1010.5 hPa | 0 mm | - | - | - |
| 1777800725 | 22.78° C | 59% | 1010.5 hPa | 0 mm | - | - | - |
| 1777799824 | 22.22° C | 61% | 1010.5 hPa | 0 mm | - | - | - |
| 1777798925 | 21.67° C | 64% | 1010.8 hPa | 0 mm | - | - | - |
| 1777798025 | 21.67° C | 66% | 1010.6 hPa | 0 mm | - | - | - |
| 1777797124 | 21.11° C | 68% | 1010.8 hPa | 0 mm | - | - | - |
| 1777796225 | 20.56° C | 70% | 1010.9 hPa | 0 mm | - | - | - |
| 1777795325 | 20° C | 72% | 1010.8 hPa | 0 mm | - | - | - |
| 1777794425 | 19.44° C | 75% | 1010.9 hPa | 0 mm | - | - | - |
| 1777793525 | 18.33° C | 77% | 1011 hPa | 0 mm | - | - | - |
| 1777792625 | 17.78° C | 84% | 1010.9 hPa | 0 mm | - | - | - |
| 1777791725 | 16.67° C | 90% | 1011 hPa | 0 mm | - | - | - |
| 1777790824 | 16.11° C | 93% | 1011.1 hPa | 0.25 mm | - | - | - |
| 1777789925 | 15.56° C | 95% | 1011.3 hPa | 0.25 mm | - | - | - |
* Rain latest hour (hover to see other rain measurements)
** Current wind speed in m/s (hover to see current wind gust speed)